User: anonymous   Login
Location: Salamanca
(40.9670°N, 5.6500°W)
Time: 16:12:29
(UTC+01:00)
Language:

Cosmos 1633 Rocket - Orbit

View from above orbital plane
View from above orbital plane
View from above satellite
View from above satellite

Ground track
Ground track

The orbit data is extracted from the following two-line orbital elements,

1 15593U 85020B   15062.70578841  .00000612  00000-0  70799-4 0  9997
2 15593 082.5406 325.2763 0010249 284.8576 104.9992 14.83964702620303
Epoch (UTC): 03 March 2015 16:56:20
Eccentricity: 0.0010249
inclination: 82.5406°
perigee height: 609 km
apogee height: 624 km
right ascension of ascending node: 325.2763°
argument of perigee: 284.8576°
revolutions per day: 14.83964702
mean anomaly at epoch: 104.9992°
orbit number at epoch: 62030

The dashed part of the orbit path shows where the satellite is in the earth's shadow,  

DLR